Time,TemperatureF,DewpointF,PressureIn,WindDirection,WindDirectionDegrees,WindSpeedMPH,WindSpeedGustMPH,Humidity,HourlyPrecipIn,Conditions,Clouds,dailyrainin,SoftwareType,DateUTC
2013-10-23 00:02:00,43.2,34.3,29.81,South,190,3.0,5.0,71,0.00,,,0.00,meteohub,2013-10-23 04:02:00,
2013-10-23 00:07:00,43.0,34.2,29.81,East,100,0.0,4.0,71,0.00,,,0.00,meteohub,2013-10-23 04:07:00,
2013-10-23 00:12:00,43.2,34.3,29.81,East,100,0.0,4.0,71,0.00,,,0.00,meteohub,2013-10-23 04:12:00,
2013-10-23 00:17:00,43.2,34.3,29.81,NNE,32,0.0,3.0,71,0.00,,,0.00,meteohub,2013-10-23 04:17:00,
2013-10-23 00:22:00,43.2,34.3,29.81,ENE,78,0.0,0.0,71,0.00,,,0.00,meteohub,2013-10-23 04:22:00,
2013-10-23 00:27:00,43.2,34.3,29.81,ENE,78,0.0,0.0,71,0.00,,,0.00,meteohub,2013-10-23 04:27:00,
2013-10-23 00:32:00,43.2,34.3,29.81,ENE,78,0.0,0.0,71,0.00,,,0.00,meteohub,2013-10-23 04:32:00,
2013-10-23 00:37:00,43.0,34.5,29.81,ENE,78,0.0,0.0,72,0.00,,,0.00,meteohub,2013-10-23 04:37:00,
2013-10-23 00:42:00,42.8,34.3,29.78,ENE,78,0.0,0.0,72,0.00,,,0.00,meteohub,2013-10-23 04:42:00,
2013-10-23 00:47:00,43.0,34.5,29.78,NNW,348,0.0,0.0,72,0.00,,,0.00,meteohub,2013-10-23 04:47:00,
2013-10-23 00:52:00,42.8,34.3,29.78,North,10,0.0,0.0,72,0.00,,,0.00,meteohub,2013-10-23 04:52:00,
2013-10-23 00:57:00,43.0,34.5,29.78,North,10,0.0,0.0,72,0.00,,,0.00,meteohub,2013-10-23 04:57:00,
2013-10-23 01:02:00,43.0,34.5,29.78,ENE,78,2.0,4.0,72,0.00,,,0.00,meteohub,2013-10-23 05:02:00,
2013-10-23 01:07:00,43.0,34.9,29.78,NNW,348,0.0,4.0,73,0.00,,,0.00,meteohub,2013-10-23 05:07:00,
2013-10-23 01:12:00,43.0,34.9,29.78,ESE,122,0.0,4.0,73,0.00,,,0.00,meteohub,2013-10-23 05:12:00,
2013-10-23 01:17:00,43.0,34.9,29.78,WNW,302,0.0,3.0,73,0.00,,,0.00,meteohub,2013-10-23 05:17:00,
2013-10-23 01:22:00,43.0,34.9,29.78,North,10,0.0,3.0,73,0.00,,,0.00,meteohub,2013-10-23 05:22:00,
2013-10-23 01:27:00,43.0,34.9,29.78,North,10,3.0,3.0,73,0.00,,,0.00,meteohub,2013-10-23 05:27:00,
2013-10-23 01:32:00,43.0,34.9,29.78,NE,55,0.0,3.0,73,0.00,,,0.00,meteohub,2013-10-23 05:32:00,
2013-10-23 01:37:00,43.2,35.4,29.78,SSE,168,0.0,3.0,74,0.00,,,0.00,meteohub,2013-10-23 05:37:00,
2013-10-23 01:42:00,43.3,35.6,29.78,SE,145,0.0,3.0,74,0.00,,,0.00,meteohub,2013-10-23 05:42:00,
2013-10-23 01:47:00,43.3,35.6,29.75,WNW,302,0.0,3.0,74,0.00,,,0.00,meteohub,2013-10-23 05:47:00,
2013-10-23 01:52:00,43.3,35.6,29.75,NW,325,0.0,3.0,74,0.00,,,0.00,meteohub,2013-10-23 05:52:00,
2013-10-23 01:57:00,43.2,35.4,29.75,WNW,302,0.0,3.0,74,0.00,,,0.00,meteohub,2013-10-23 05:57:00,
2013-10-23 02:02:00,43.3,35.6,29.75,NW,325,0.0,3.0,74,0.00,,,0.00,meteohub,2013-10-23 06:02:00,
2013-10-23 02:07:00,43.3,35.6,29.75,NNW,348,0.0,2.0,74,0.00,,,0.00,meteohub,2013-10-23 06:07:00,
2013-10-23 02:12:00,43.3,35.6,29.75,North,10,0.0,0.0,74,0.00,,,0.00,meteohub,2013-10-23 06:12:00,
2013-10-23 02:17:00,43.5,35.8,29.75,WSW,258,0.0,0.0,74,0.00,,,0.00,meteohub,2013-10-23 06:17:00,
2013-10-23 02:22:00,43.3,35.6,29.75,North,10,0.0,0.0,74,0.00,,,0.00,meteohub,2013-10-23 06:22:00,
2013-10-23 02:27:00,43.5,36.1,29.75,SE,145,2.0,0.0,75,0.00,,,0.00,meteohub,2013-10-23 06:27:00,
2013-10-23 02:32:00,43.5,36.1,29.75,ENE,78,3.0,4.0,75,0.00,,,0.00,meteohub,2013-10-23 06:32:00,
2013-10-23 02:37:00,43.5,36.1,29.75,North,10,0.0,4.0,75,0.00,,,0.00,meteohub,2013-10-23 06:37:00,
2013-10-23 02:42:00,43.3,36.0,29.75,WNW,302,0.0,4.0,75,0.00,,,0.00,meteohub,2013-10-23 06:42:00,
2013-10-23 02:47:00,43.5,36.1,29.75,WNW,302,0.0,4.0,75,0.00,,,0.00,meteohub,2013-10-23 06:47:00,
2013-10-23 02:52:00,43.5,36.1,29.75,WNW,302,0.0,4.0,75,0.00,,,0.00,meteohub,2013-10-23 06:52:00,
2013-10-23 02:57:00,43.5,35.8,29.72,West,280,0.0,3.0,74,0.00,,,0.00,meteohub,2013-10-23 06:57:00,
2013-10-23 03:02:00,43.5,36.1,29.72,North,10,0.0,3.0,75,0.00,,,0.00,meteohub,2013-10-23 07:02:00,
2013-10-23 03:07:00,43.5,36.1,29.72,NNE,32,0.0,0.0,75,0.00,,,0.00,meteohub,2013-10-23 07:07:00,
2013-10-23 03:12:00,43.3,36.0,29.75,NE,55,0.0,0.0,75,0.00,,,0.00,meteohub,2013-10-23 07:12:00,
2013-10-23 03:17:00,43.3,36.0,29.75,North,10,0.0,0.0,75,0.00,,,0.00,meteohub,2013-10-23 07:17:00,
2013-10-23 03:22:00,43.2,35.8,29.75,ENE,78,0.0,0.0,75,0.00,,,0.00,meteohub,2013-10-23 07:22:00,
2013-10-23 03:27:00,42.8,35.1,29.75,SE,145,2.0,4.0,74,0.00,,,0.00,meteohub,2013-10-23 07:27:00,
2013-10-23 03:32:00,42.6,35.2,29.75,SSE,168,5.0,6.0,75,0.00,,,0.00,meteohub,2013-10-23 07:32:00,
2013-10-23 03:37:00,42.4,35.1,29.75,SE,145,2.0,6.0,75,0.00,,,0.00,meteohub,2013-10-23 07:37:00,
2013-10-23 03:42:00,42.3,34.9,29.75,ESE,122,4.0,6.0,75,0.00,,,0.00,meteohub,2013-10-23 07:42:00,
2013-10-23 03:47:00,42.1,34.7,29.75,SW,235,0.0,5.0,75,0.00,,,0.00,meteohub,2013-10-23 07:47:00,
2013-10-23 03:52:00,41.9,34.5,29.75,South,190,0.0,4.0,75,0.00,,,0.00,meteohub,2013-10-23 07:52:00,
2013-10-23 03:57:00,41.7,34.3,29.72,South,190,0.0,4.0,75,0.00,,,0.00,meteohub,2013-10-23 07:57:00,
2013-10-23 04:02:00,41.5,34.2,29.72,SSE,168,0.0,0.0,75,0.00,,,0.00,meteohub,2013-10-23 08:02:00,
2013-10-23 04:07:00,41.5,34.2,29.72,SE,145,0.0,0.0,75,0.00,,,0.00,meteohub,2013-10-23 08:07:00,
2013-10-23 04:12:00,41.4,34.0,29.72,SE,145,0.0,0.0,75,0.00,,,0.00,meteohub,2013-10-23 08:12:00,
2013-10-23 04:17:00,41.4,34.0,29.72,SE,145,0.0,0.0,75,0.00,,,0.00,meteohub,2013-10-23 08:17:00,
2013-10-23 04:22:00,41.0,33.6,29.72,ESE,122,0.0,0.0,75,0.00,,,0.00,meteohub,2013-10-23 08:22:00,
2013-10-23 04:27:00,40.8,33.6,29.69,ESE,122,0.0,0.0,75,0.00,,,0.00,meteohub,2013-10-23 08:27:00,
2013-10-23 04:32:00,40.6,33.4,29.69,SSW,212,0.0,0.0,75,0.00,,,0.00,meteohub,2013-10-23 08:32:00,
2013-10-23 04:37:00,40.5,33.3,29.69,SSE,168,4.0,0.0,75,0.00,,,0.00,meteohub,2013-10-23 08:37:00,
2013-10-23 04:42:00,40.5,33.3,29.72,ESE,122,3.0,5.0,75,0.00,,,0.00,meteohub,2013-10-23 08:42:00,
2013-10-23 04:47:00,40.5,33.4,29.72,ESE,122,0.0,5.0,76,0.00,,,0.00,meteohub,2013-10-23 08:47:00,
2013-10-23 04:52:00,40.3,33.3,29.72,ESE,122,0.0,5.0,76,0.00,,,0.00,meteohub,2013-10-23 08:52:00,
2013-10-23 04:57:00,39.9,33.1,29.72,ESE,122,0.0,4.0,76,0.00,,,0.00,meteohub,2013-10-23 08:57:00,
2013-10-23 05:02:00,39.9,32.7,29.72,SSE,168,0.0,0.0,75,0.00,,,0.00,meteohub,2013-10-23 09:02:00,
2013-10-23 05:07:00,39.7,32.5,29.72,SSE,168,0.0,0.0,75,0.00,,,0.00,meteohub,2013-10-23 09:07:00,
2013-10-23 05:12:00,39.4,32.2,29.72,West,280,0.0,0.0,75,0.00,,,0.00,meteohub,2013-10-23 09:12:00,
2013-10-23 05:17:00,39.4,32.2,29.72,SSE,168,0.0,0.0,75,0.00,,,0.00,meteohub,2013-10-23 09:17:00,
2013-10-23 05:22:00,39.4,32.5,29.72,SSE,168,0.0,0.0,76,0.00,,,0.00,meteohub,2013-10-23 09:22:00,
2013-10-23 05:27:00,39.6,32.7,29.72,ESE,122,0.0,0.0,76,0.00,,,0.00,meteohub,2013-10-23 09:27:00,
2013-10-23 05:32:00,38.8,32.0,29.72,East,100,0.0,0.0,76,0.00,,,0.00,meteohub,2013-10-23 09:32:00,
2013-10-23 05:37:00,38.5,31.6,29.72,North,10,0.0,0.0,76,0.00,,,0.00,meteohub,2013-10-23 09:37:00,
2013-10-23 05:42:00,38.5,31.6,29.72,North,10,0.0,0.0,76,0.00,,,0.00,meteohub,2013-10-23 09:42:00,
2013-10-23 05:47:00,38.1,31.3,29.72,ENE,78,0.0,0.0,76,0.00,,,0.00,meteohub,2013-10-23 09:47:00,
2013-10-23 05:52:00,38.3,31.5,29.72,ENE,78,0.0,0.0,76,0.00,,,0.00,meteohub,2013-10-23 09:52:00,
2013-10-23 05:57:00,38.5,31.6,29.69,ENE,78,0.0,0.0,76,0.00,,,0.00,meteohub,2013-10-23 09:57:00,
2013-10-23 06:02:00,38.1,31.3,29.69,SSE,168,0.0,0.0,76,0.00,,,0.00,meteohub,2013-10-23 10:02:00,
2013-10-23 06:07:00,37.9,31.5,29.69,East,100,0.0,0.0,77,0.00,,,0.00,meteohub,2013-10-23 10:07:00,
2013-10-23 06:12:00,38.1,31.6,29.69,East,100,0.0,0.0,77,0.00,,,0.00,meteohub,2013-10-23 10:12:00,
2013-10-23 06:17:00,37.9,31.5,29.69,East,100,0.0,0.0,77,0.00,,,0.00,meteohub,2013-10-23 10:17:00,
2013-10-23 06:22:00,37.8,31.3,29.69,East,100,0.0,0.0,77,0.00,,,0.00,meteohub,2013-10-23 10:22:00,
2013-10-23 06:27:00,37.4,30.9,29.69,WSW,258,0.0,0.0,77,0.00,,,0.00,meteohub,2013-10-23 10:27:00,
2013-10-23 06:32:00,37.2,30.7,29.69,South,190,0.0,0.0,77,0.00,,,0.00,meteohub,2013-10-23 10:32:00,
2013-10-23 06:37:00,37.6,31.1,29.69,SE,145,0.0,0.0,77,0.00,,,0.00,meteohub,2013-10-23 10:37:00,
2013-10-23 06:42:00,37.6,31.1,29.69,ENE,78,0.0,0.0,77,0.00,,,0.00,meteohub,2013-10-23 10:42:00,
2013-10-23 06:47:00,37.2,31.1,29.69,WSW,258,0.0,3.0,78,0.00,,,0.00,meteohub,2013-10-23 10:47:00,
2013-10-23 06:52:00,37.4,31.1,29.69,ESE,122,0.0,3.0,78,0.00,,,0.00,meteohub,2013-10-23 10:52:00,
2013-10-23 06:57:00,37.6,31.3,29.69,East,100,0.0,4.0,78,0.00,,,0.00,meteohub,2013-10-23 10:57:00,
2013-10-23 07:02:00,37.8,31.5,29.69,ENE,78,4.0,4.0,78,0.00,,,0.00,meteohub,2013-10-23 11:02:00,
2013-10-23 07:07:00,37.6,31.3,29.69,NW,325,0.0,4.0,78,0.00,,,0.00,meteohub,2013-10-23 11:07:00,
2013-10-23 07:12:00,37.0,30.9,29.69,SW,235,0.0,4.0,78,0.00,,,0.00,meteohub,2013-10-23 11:12:00,
2013-10-23 07:17:00,37.4,31.1,29.69,North,10,0.0,4.0,78,0.00,,,0.00,meteohub,2013-10-23 11:17:00,
2013-10-23 07:22:00,37.4,31.5,29.69,NNW,348,0.0,3.0,79,0.00,,,0.00,meteohub,2013-10-23 11:22:00,
2013-10-23 07:27:00,37.6,31.6,29.69,ENE,78,0.0,0.0,79,0.00,,,0.00,meteohub,2013-10-23 11:27:00,
2013-10-23 07:32:00,37.4,31.5,29.69,ENE,78,0.0,0.0,79,0.00,,,0.00,meteohub,2013-10-23 11:32:00,
2013-10-23 07:37:00,37.6,32.0,29.69,ENE,78,0.0,0.0,80,0.00,,,0.00,meteohub,2013-10-23 11:37:00,
2013-10-23 07:42:00,37.6,32.0,29.69,ENE,78,0.0,0.0,80,0.00,,,0.00,meteohub,2013-10-23 11:42:00,
2013-10-23 07:47:00,37.8,32.2,29.69,NW,325,0.0,0.0,80,0.00,,,0.00,meteohub,2013-10-23 11:47:00,
2013-10-23 07:52:00,37.6,32.0,29.69,North,10,0.0,0.0,80,0.00,,,0.00,meteohub,2013-10-23 11:52:00,
2013-10-23 07:57:00,37.6,32.0,29.69,North,10,0.0,0.0,80,0.00,,,0.00,meteohub,2013-10-23 11:57:00,
2013-10-23 08:02:00,37.6,32.0,29.69,NNW,348,0.0,0.0,80,0.00,,,0.00,meteohub,2013-10-23 12:02:00,
2013-10-23 08:07:00,37.6,32.4,29.69,NNW,348,0.0,4.0,81,0.00,,,0.00,meteohub,2013-10-23 12:07:00,
2013-10-23 08:12:00,37.8,32.5,29.69,North,10,0.0,4.0,81,0.00,,,0.00,meteohub,2013-10-23 12:12:00,
2013-10-23 08:17:00,37.8,32.5,29.69,SSW,212,0.0,4.0,81,0.00,,,0.00,meteohub,2013-10-23 12:17:00,
2013-10-23 08:22:00,37.9,32.7,29.69,NNW,348,4.0,0.0,81,0.00,,,0.00,meteohub,2013-10-23 12:22:00,
2013-10-23 08:27:00,37.8,32.5,29.66,NNW,348,0.0,4.0,81,0.00,,,0.00,meteohub,2013-10-23 12:27:00,
2013-10-23 08:32:00,37.9,32.7,29.66,NNE,32,0.0,4.0,81,0.00,,,0.00,meteohub,2013-10-23 12:32:00,
2013-10-23 08:37:00,38.1,32.9,29.66,NNW,348,4.0,4.0,81,0.00,,,0.00,meteohub,2013-10-23 12:37:00,
2013-10-23 08:42:00,38.1,32.9,29.69,ENE,78,0.0,4.0,81,0.00,,,0.00,meteohub,2013-10-23 12:42:00,
2013-10-23 08:47:00,38.1,32.9,29.69,North,10,0.0,4.0,81,0.00,,,0.00,meteohub,2013-10-23 12:47:00,
2013-10-23 08:52:00,37.9,32.4,29.69,NW,325,4.0,5.0,80,0.00,,,0.00,meteohub,2013-10-23 12:52:00,
2013-10-23 08:57:00,38.1,32.5,29.69,NE,55,3.0,5.0,80,0.00,,,0.00,meteohub,2013-10-23 12:57:00,
2013-10-23 09:02:00,38.5,33.3,29.69,SE,145,2.0,5.0,81,0.00,,,0.00,meteohub,2013-10-23 13:02:00,
2013-10-23 09:07:00,38.5,32.9,29.69,ENE,78,5.0,5.0,80,0.00,,,0.00,meteohub,2013-10-23 13:07:00,
2013-10-23 09:12:00,38.7,33.4,29.69,NNW,348,6.0,6.0,81,0.00,,,0.00,meteohub,2013-10-23 13:12:00,
2013-10-23 09:17:00,38.7,33.1,29.69,NW,325,0.0,7.0,80,0.00,,,0.00,meteohub,2013-10-23 13:17:00,
2013-10-23 09:22:00,38.7,33.1,29.69,South,190,0.0,7.0,80,0.00,,,0.00,meteohub,2013-10-23 13:22:00,
2013-10-23 09:27:00,38.8,33.3,29.69,ESE,122,0.0,7.0,80,0.00,,,0.00,meteohub,2013-10-23 13:27:00,
2013-10-23 09:32:00,39.0,33.6,29.69,SE,145,0.0,5.0,81,0.00,,,0.00,meteohub,2013-10-23 13:32:00,
2013-10-23 09:37:00,39.4,34.0,29.69,East,100,3.0,4.0,81,0.00,,,0.00,meteohub,2013-10-23 13:37:00,
2013-10-23 09:42:00,39.7,34.3,29.69,North,10,0.0,0.0,81,0.00,,,0.00,meteohub,2013-10-23 13:42:00,
2013-10-23 09:47:00,39.6,34.0,29.69,North,10,3.0,4.0,80,0.00,,,0.00,meteohub,2013-10-23 13:47:00,
2013-10-23 09:52:00,39.6,34.2,29.69,North,10,0.0,5.0,81,0.00,,,0.00,meteohub,2013-10-23 13:52:00,
2013-10-23 09:57:00,39.6,34.2,29.69,NNW,348,5.0,5.0,81,0.00,,,0.00,meteohub,2013-10-23 13:57:00,
2013-10-23 10:02:00,39.7,34.3,29.69,NNW,348,0.0,5.0,81,0.00,,,0.00,meteohub,2013-10-23 14:02:00,
2013-10-23 10:07:00,39.7,34.3,29.69,WNW,302,0.0,5.0,81,0.00,,,0.00,meteohub,2013-10-23 14:07:00,
2013-10-23 10:12:00,39.9,34.5,29.72,SSW,212,0.0,5.0,81,0.00,,,0.00,meteohub,2013-10-23 14:12:00,
2013-10-23 10:17:00,40.3,35.2,29.72,NNW,348,3.0,4.0,82,0.00,,,0.00,meteohub,2013-10-23 14:17:00,
2013-10-23 10:22:00,40.5,35.4,29.72,NE,55,0.0,4.0,82,0.00,,,0.00,meteohub,2013-10-23 14:22:00,
2013-10-23 10:27:00,40.6,35.6,29.69,ENE,78,0.0,4.0,82,0.00,,,0.00,meteohub,2013-10-23 14:27:00,
2013-10-23 10:32:00,40.8,35.8,29.69,NNE,32,0.0,4.0,82,0.00,,,0.00,meteohub,2013-10-23 14:32:00,
2013-10-23 10:37:00,41.5,36.9,29.69,NNW,348,3.0,4.0,83,0.00,,,0.00,meteohub,2013-10-23 14:37:00,
2013-10-23 10:42:00,41.7,37.0,29.69,NW,325,0.0,7.0,83,0.00,,,0.00,meteohub,2013-10-23 14:42:00,
2013-10-23 10:47:00,42.8,38.3,29.69,West,280,3.0,7.0,84,0.00,,,0.00,meteohub,2013-10-23 14:47:00,
2013-10-23 10:52:00,43.3,39.2,29.69,WSW,258,3.0,7.0,85,0.00,,,0.00,meteohub,2013-10-23 14:52:00,
2013-10-23 10:57:00,43.7,39.6,29.69,South,190,2.0,7.0,85,0.00,,,0.00,meteohub,2013-10-23 14:57:00,
2013-10-23 11:02:00,44.2,40.1,29.69,WSW,258,6.0,9.0,85,0.00,,,0.00,meteohub,2013-10-23 15:02:00,
2013-10-23 11:07:00,44.2,39.4,29.69,NNW,348,3.0,13.0,83,0.00,,,0.00,meteohub,2013-10-23 15:07:00,
2013-10-23 11:12:00,44.6,39.7,29.69,WSW,258,7.0,13.0,83,0.00,,,0.00,meteohub,2013-10-23 15:12:00,
2013-10-23 11:17:00,45.1,39.9,29.69,South,190,5.0,8.0,82,0.00,,,0.00,meteohub,2013-10-23 15:17:00,
2013-10-23 11:22:00,45.7,40.3,29.69,West,280,2.0,12.0,81,0.00,,,0.00,meteohub,2013-10-23 15:22:00,
2013-10-23 11:27:00,46.2,40.1,29.69,WNW,302,7.0,12.0,79,0.00,,,0.00,meteohub,2013-10-23 15:27:00,
2013-10-23 11:32:00,46.4,39.9,29.69,NNE,32,6.0,17.0,78,0.00,,,0.00,meteohub,2013-10-23 15:32:00,
2013-10-23 11:37:00,46.6,39.4,29.69,SSW,212,3.0,17.0,76,0.00,,,0.00,meteohub,2013-10-23 15:37:00,
2013-10-23 11:42:00,46.8,39.2,29.69,WNW,302,2.0,17.0,75,0.00,,,0.00,meteohub,2013-10-23 15:42:00,
2013-10-23 11:47:00,46.9,38.8,29.66,NNE,32,9.0,17.0,73,0.00,,,0.00,meteohub,2013-10-23 15:47:00,
2013-10-23 11:52:00,46.6,38.5,29.66,SSW,212,5.0,16.0,73,0.00,,,0.00,meteohub,2013-10-23 15:52:00,
2013-10-23 11:57:00,46.6,38.8,29.72,West,280,7.0,16.0,74,0.00,,,0.00,meteohub,2013-10-23 15:57:00,
2013-10-23 12:02:00,46.4,38.7,29.72,ESE,122,2.0,16.0,74,0.00,,,0.00,meteohub,2013-10-23 16:02:00,
2013-10-23 12:07:00,45.9,38.1,29.72,North,10,4.0,13.0,74,0.00,,,0.00,meteohub,2013-10-23 16:07:00,
2013-10-23 12:12:00,45.5,38.1,29.69,SSE,168,16.0,20.0,75,0.00,,,0.00,meteohub,2013-10-23 16:12:00,
2013-10-23 12:17:00,45.5,38.5,29.69,ESE,122,4.0,20.0,76,0.00,,,0.00,meteohub,2013-10-23 16:17:00,
2013-10-23 12:22:00,45.9,38.5,29.69,South,190,5.0,20.0,75,0.00,,,0.00,meteohub,2013-10-23 16:22:00,
2013-10-23 12:27:00,46.4,38.8,29.69,East,100,9.0,16.0,75,0.00,,,0.00,meteohub,2013-10-23 16:27:00,
2013-10-23 12:32:00,46.8,39.6,29.69,SSW,212,18.0,18.0,76,0.00,,,0.00,meteohub,2013-10-23 16:32:00,
2013-10-23 12:37:00,46.4,38.7,29.69,SSW,212,5.0,22.0,74,0.00,,,0.00,meteohub,2013-10-23 16:37:00,
2013-10-23 12:42:00,46.6,38.8,29.69,SW,235,11.0,22.0,74,0.00,,,0.00,meteohub,2013-10-23 16:42:00,
2013-10-23 12:47:00,46.9,38.5,29.69,WSW,258,9.0,22.0,72,0.00,,,0.00,meteohub,2013-10-23 16:47:00,
2013-10-23 12:52:00,46.9,37.4,29.69,SSW,212,9.0,13.0,69,0.00,,,0.00,meteohub,2013-10-23 16:52:00,
2013-10-23 12:57:00,47.3,37.6,29.66,WNW,302,3.0,20.0,69,0.00,,,0.00,meteohub,2013-10-23 16:57:00,
2013-10-23 13:02:00,48.0,37.2,29.66,WNW,302,8.0,20.0,66,0.00,,,0.00,meteohub,2013-10-23 17:02:00,
2013-10-23 13:07:00,48.4,36.0,29.66,SSE,168,4.0,17.0,62,0.00,,,0.00,meteohub,2013-10-23 17:07:00,
2013-10-23 13:12:00,48.9,35.6,29.72,South,190,26.0,26.0,60,0.00,,,0.00,meteohub,2013-10-23 17:12:00,
2013-10-23 13:17:00,48.9,35.6,29.72,WSW,258,7.0,20.0,60,0.00,,,0.00,meteohub,2013-10-23 17:17:00,
2013-10-23 13:27:00,48.0,34.0,29.69,NNW,348,26.0,27.0,58,0.00,,,0.00,meteohub,2013-10-23 17:27:00,
2013-10-23 13:32:00,47.7,33.6,29.69,WNW,302,8.0,43.0,58,0.00,,,0.00,meteohub,2013-10-23 17:32:00,
2013-10-23 13:37:00,47.5,33.4,29.69,North,10,15.0,43.0,58,0.00,,,0.00,meteohub,2013-10-23 17:37:00,
2013-10-23 13:42:00,46.9,34.7,29.69,NNE,32,9.0,43.0,62,0.00,,,0.00,meteohub,2013-10-23 17:42:00,
2013-10-23 13:47:00,46.0,34.9,29.69,WSW,258,9.0,24.0,65,0.00,,,0.00,meteohub,2013-10-23 17:47:00,
2013-10-23 13:52:00,45.5,35.6,29.69,SW,235,8.0,28.0,68,0.04,,,0.04,meteohub,2013-10-23 17:52:00,
2013-10-23 13:57:00,45.5,36.0,29.69,WNW,302,11.0,28.0,69,0.04,,,0.04,meteohub,2013-10-23 17:57:00,
2013-10-23 14:02:00,45.5,36.3,29.69,WNW,302,15.0,21.0,70,0.04,,,0.04,meteohub,2013-10-23 18:02:00,
2013-10-23 14:07:00,45.3,36.1,29.69,West,280,13.0,15.0,70,0.04,,,0.04,meteohub,2013-10-23 18:07:00,
2013-10-23 14:12:00,45.1,35.6,29.69,SSE,168,4.0,21.0,69,0.04,,,0.04,meteohub,2013-10-23 18:12:00,
2013-10-23 14:17:00,45.3,35.8,29.69,NNW,348,5.0,29.0,69,0.04,,,0.04,meteohub,2013-10-23 18:17:00,
2013-10-23 14:22:00,45.3,35.4,29.69,North,10,5.0,29.0,68,0.04,,,0.04,meteohub,2013-10-23 18:22:00,
2013-10-23 14:27:00,46.0,36.5,29.69,WNW,302,12.0,29.0,69,0.04,,,0.04,meteohub,2013-10-23 18:27:00,
2013-10-23 14:32:00,46.0,36.5,29.69,West,280,7.0,26.0,69,0.04,,,0.04,meteohub,2013-10-23 18:32:00,
2013-10-23 14:37:00,46.0,36.1,29.69,West,280,7.0,26.0,68,0.04,,,0.04,meteohub,2013-10-23 18:37:00,
2013-10-23 14:42:00,46.0,36.1,29.69,WNW,302,9.0,15.0,68,0.04,,,0.04,meteohub,2013-10-23 18:42:00,
2013-10-23 14:47:00,46.0,35.8,29.69,WNW,302,7.0,15.0,67,0.04,,,0.04,meteohub,2013-10-23 18:47:00,
2013-10-23 14:52:00,46.2,35.1,29.69,WNW,302,9.0,15.0,65,0.00,,,0.04,meteohub,2013-10-23 18:52:00,
2013-10-23 14:57:00,46.0,34.9,29.72,WSW,258,5.0,16.0,65,0.00,,,0.04,meteohub,2013-10-23 18:57:00,
2013-10-23 15:02:00,45.9,33.6,29.72,WSW,258,17.0,17.0,62,0.00,,,0.04,meteohub,2013-10-23 19:02:00,
2013-10-23 15:07:00,45.9,34.0,29.72,SSW,212,9.0,21.0,63,0.00,,,0.04,meteohub,2013-10-23 19:07:00,
2013-10-23 15:12:00,45.7,34.2,29.69,SSE,168,10.0,21.0,64,0.00,,,0.04,meteohub,2013-10-23 19:12:00,
2013-10-23 15:17:00,45.9,34.0,29.69,NW,325,12.0,29.0,63,0.00,,,0.04,meteohub,2013-10-23 19:17:00,
2013-10-23 15:22:00,45.9,33.6,29.69,SSW,212,6.0,29.0,62,0.00,,,0.04,meteohub,2013-10-23 19:22:00,
2013-10-23 15:27:00,45.7,33.1,29.72,NNE,32,19.0,25.0,61,0.00,,,0.04,meteohub,2013-10-23 19:27:00,
2013-10-23 15:32:00,45.7,33.8,29.72,South,190,10.0,25.0,63,0.00,,,0.04,meteohub,2013-10-23 19:32:00,
2013-10-23 15:37:00,45.5,33.3,29.72,WNW,302,8.0,25.0,62,0.00,,,0.04,meteohub,2013-10-23 19:37:00,
2013-10-23 15:42:00,45.0,34.0,29.72,WNW,302,13.0,25.0,65,0.00,,,0.04,meteohub,2013-10-23 19:42:00,
2013-10-23 15:47:00,45.0,34.0,29.72,West,280,15.0,26.0,65,0.00,,,0.04,meteohub,2013-10-23 19:47:00,
2013-10-23 15:52:00,45.0,34.3,29.72,West,280,16.0,26.0,66,0.00,,,0.04,meteohub,2013-10-23 19:52:00,
2013-10-23 15:57:00,44.8,34.2,29.72,West,280,11.0,26.0,66,0.00,,,0.04,meteohub,2013-10-23 19:57:00,
2013-10-23 16:02:00,44.6,34.0,29.72,WNW,302,9.0,21.0,66,0.00,,,0.04,meteohub,2013-10-23 20:02:00,
2013-10-23 16:07:00,44.8,33.8,29.72,WSW,258,8.0,22.0,65,0.00,,,0.04,meteohub,2013-10-23 20:07:00,
2013-10-23 16:12:00,44.8,33.4,29.75,ESE,122,16.0,22.0,64,0.00,,,0.04,meteohub,2013-10-23 20:12:00,
2013-10-23 16:17:00,45.0,33.6,29.75,NNE,32,5.0,21.0,64,0.00,,,0.04,meteohub,2013-10-23 20:17:00,
2013-10-23 16:22:00,44.8,32.5,29.75,SW,235,8.0,21.0,62,0.00,,,0.04,meteohub,2013-10-23 20:22:00,
2013-10-23 16:27:00,44.8,32.5,29.72,WSW,258,6.0,21.0,62,0.00,,,0.04,meteohub,2013-10-23 20:27:00,
2013-10-23 16:32:00,44.6,32.4,29.72,South,190,6.0,21.0,62,0.00,,,0.04,meteohub,2013-10-23 20:32:00,
2013-10-23 16:37:00,44.6,32.0,29.72,WNW,302,11.0,21.0,61,0.00,,,0.04,meteohub,2013-10-23 20:37:00,
2013-10-23 16:42:00,44.4,31.8,29.75,WNW,302,6.0,21.0,61,0.00,,,0.04,meteohub,2013-10-23 20:42:00,
2013-10-23 16:47:00,44.1,31.1,29.75,North,10,9.0,21.0,60,0.00,,,0.04,meteohub,2013-10-23 20:47:00,
2013-10-23 16:52:00,43.7,30.4,29.75,NNW,348,13.0,26.0,59,0.00,,,0.04,meteohub,2013-10-23 20:52:00,
2013-10-23 16:57:00,43.7,30.7,29.78,West,280,8.0,26.0,60,0.00,,,0.04,meteohub,2013-10-23 20:57:00,
2013-10-23 17:02:00,43.7,30.7,29.78,West,280,11.0,26.0,60,0.00,,,0.04,meteohub,2013-10-23 21:02:00,
2013-10-23 17:07:00,43.2,29.8,29.78,NNW,348,7.0,22.0,59,0.00,,,0.04,meteohub,2013-10-23 21:07:00,
2013-10-23 17:12:00,43.0,29.7,29.81,NW,325,7.0,21.0,59,0.00,,,0.04,meteohub,2013-10-23 21:12:00,
2013-10-23 17:17:00,43.0,29.7,29.81,NW,325,7.0,21.0,59,0.00,,,0.04,meteohub,2013-10-23 21:17:00,
2013-10-23 17:22:00,42.6,29.3,29.81,North,10,16.0,21.0,59,0.00,,,0.04,meteohub,2013-10-23 21:22:00,
2013-10-23 17:27:00,42.4,29.1,29.81,WNW,302,11.0,21.0,59,0.00,,,0.04,meteohub,2013-10-23 21:27:00,
2013-10-23 17:32:00,42.4,29.7,29.81,West,280,8.0,21.0,60,0.00,,,0.04,meteohub,2013-10-23 21:32:00,
2013-10-23 17:37:00,42.3,28.9,29.81,WNW,302,21.0,21.0,59,0.00,,,0.04,meteohub,2013-10-23 21:37:00,
2013-10-23 17:42:00,42.1,28.8,29.81,NNW,348,8.0,30.0,59,0.00,,,0.04,meteohub,2013-10-23 21:42:00,
2013-10-23 17:47:00,41.9,28.6,29.81,ENE,78,7.0,30.0,59,0.00,,,0.04,meteohub,2013-10-23 21:47:00,
2013-10-23 17:52:00,41.7,28.4,29.81,WNW,302,12.0,26.0,59,0.00,,,0.04,meteohub,2013-10-23 21:52:00,
2013-10-23 17:57:00,41.5,28.4,29.81,WNW,302,9.0,17.0,59,0.00,,,0.04,meteohub,2013-10-23 21:57:00,
2013-10-23 18:02:00,41.2,28.0,29.81,WNW,302,13.0,35.0,59,0.00,,,0.04,meteohub,2013-10-23 22:02:00,
2013-10-23 18:07:00,41.0,27.9,29.81,NNW,348,12.0,35.0,59,0.00,,,0.04,meteohub,2013-10-23 22:07:00,
2013-10-23 18:12:00,40.8,27.7,29.81,West,280,11.0,35.0,59,0.00,,,0.04,meteohub,2013-10-23 22:12:00,
2013-10-23 18:17:00,40.5,27.7,29.81,WNW,302,11.0,26.0,60,0.00,,,0.04,meteohub,2013-10-23 22:17:00,
2013-10-23 18:22:00,40.5,28.0,29.81,SSW,212,15.0,23.0,61,0.00,,,0.04,meteohub,2013-10-23 22:22:00,
2013-10-23 18:27:00,40.3,28.4,29.84,West,280,8.0,17.0,62,0.00,,,0.04,meteohub,2013-10-23 22:27:00,
2013-10-23 18:37:00,39.9,28.0,29.84,WNW,302,11.0,15.0,62,0.00,,,0.04,meteohub,2013-10-23 22:37:00,
2013-10-23 18:42:00,39.7,27.9,29.84,WSW,258,7.0,15.0,62,0.00,,,0.04,meteohub,2013-10-23 22:42:00,
2013-10-23 18:47:00,39.6,28.0,29.84,WSW,258,5.0,15.0,63,0.00,,,0.04,meteohub,2013-10-23 22:47:00,
2013-10-23 18:52:00,39.4,28.2,29.84,WSW,258,22.0,22.0,64,0.00,,,0.04,meteohub,2013-10-23 22:52:00,
2013-10-23 18:57:00,39.4,27.9,29.84,SSW,212,9.0,22.0,63,0.00,,,0.04,meteohub,2013-10-23 22:57:00,
2013-10-23 19:02:00,39.4,27.9,29.84,WNW,302,9.0,22.0,63,0.00,,,0.04,meteohub,2013-10-23 23:02:00,
2013-10-23 19:07:00,39.4,27.9,29.84,NW,325,8.0,22.0,63,0.00,,,0.04,meteohub,2013-10-23 23:07:00,
2013-10-23 19:12:00,39.4,27.9,29.87,WNW,302,6.0,17.0,63,0.00,,,0.04,meteohub,2013-10-23 23:12:00,
2013-10-23 19:17:00,39.4,28.2,29.87,North,10,6.0,17.0,64,0.00,,,0.04,meteohub,2013-10-23 23:17:00,
2013-10-23 19:22:00,39.4,27.9,29.87,NW,325,17.0,20.0,63,0.00,,,0.04,meteohub,2013-10-23 23:22:00,
2013-10-23 19:27:00,39.4,27.5,29.90,NW,325,8.0,20.0,62,0.00,,,0.04,meteohub,2013-10-23 23:27:00,
2013-10-23 19:32:00,39.4,27.5,29.90,NW,325,6.0,20.0,62,0.00,,,0.04,meteohub,2013-10-23 23:32:00,
2013-10-23 19:42:00,39.2,27.7,29.87,NNW,348,7.0,18.0,63,0.00,,,0.04,meteohub,2013-10-23 23:42:00,
2013-10-23 19:47:00,39.0,27.5,29.87,WSW,258,9.0,19.0,63,0.00,,,0.04,meteohub,2013-10-23 23:47:00,
2013-10-23 19:52:00,38.8,27.7,29.87,SSE,168,12.0,19.0,64,0.00,,,0.04,meteohub,2013-10-23 23:52:00,
2013-10-23 19:57:00,38.8,27.7,29.87,SSW,212,9.0,21.0,64,0.00,,,0.04,meteohub,2013-10-23 23:57:00,
2013-10-23 20:02:00,38.7,27.5,29.87,WSW,258,13.0,21.0,64,0.00,,,0.04,meteohub,2013-10-24 00:02:00,
2013-10-23 20:07:00,38.5,27.9,29.87,South,190,15.0,20.0,65,0.00,,,0.04,meteohub,2013-10-24 00:07:00,
2013-10-23 20:12:00,38.5,27.9,29.87,WSW,258,4.0,20.0,65,0.00,,,0.04,meteohub,2013-10-24 00:12:00,
2013-10-23 20:17:00,38.5,27.9,29.87,SW,235,12.0,26.0,65,0.00,,,0.04,meteohub,2013-10-24 00:17:00,
2013-10-23 20:22:00,38.3,28.0,29.87,NW,325,8.0,26.0,66,0.00,,,0.04,meteohub,2013-10-24 00:22:00,
2013-10-23 20:27:00,38.1,28.2,29.87,WNW,302,4.0,24.0,67,0.00,,,0.04,meteohub,2013-10-24 00:27:00,
2013-10-23 20:32:00,37.9,28.4,29.87,WSW,258,9.0,24.0,68,0.00,,,0.04,meteohub,2013-10-24 00:32:00,
2013-10-23 20:37:00,37.9,28.4,29.87,SSW,212,7.0,21.0,68,0.00,,,0.04,meteohub,2013-10-24 00:37:00,
2013-10-23 20:42:00,37.8,28.2,29.90,WSW,258,7.0,21.0,68,0.00,,,0.04,meteohub,2013-10-24 00:42:00,
2013-10-23 20:47:00,37.8,28.2,29.90,WNW,302,6.0,20.0,68,0.00,,,0.04,meteohub,2013-10-24 00:47:00,
2013-10-23 20:52:00,37.8,28.2,29.90,SW,235,6.0,20.0,68,0.00,,,0.04,meteohub,2013-10-24 00:52:00,
2013-10-23 20:57:00,37.9,28.4,29.93,WSW,258,5.0,19.0,68,0.00,,,0.04,meteohub,2013-10-24 00:57:00,
2013-10-23 21:02:00,37.4,27.5,29.93,WSW,258,6.0,20.0,67,0.00,,,0.04,meteohub,2013-10-24 01:02:00,
2013-10-23 21:07:00,37.0,27.9,29.93,NNW,348,25.0,26.0,69,0.00,,,0.04,meteohub,2013-10-24 01:07:00,
2013-10-23 21:12:00,36.9,27.3,29.93,WNW,302,21.0,26.0,68,0.00,,,0.04,meteohub,2013-10-24 01:12:00,
2013-10-23 21:17:00,36.7,27.5,29.93,SW,235,6.0,26.0,69,0.00,,,0.04,meteohub,2013-10-24 01:17:00,
2013-10-23 21:22:00,36.7,27.5,29.93,West,280,16.0,25.0,69,0.00,,,0.04,meteohub,2013-10-24 01:22:00,
2013-10-23 21:27:00,36.3,27.9,29.93,NNW,348,9.0,25.0,71,0.00,,,0.04,meteohub,2013-10-24 01:27:00,
2013-10-23 21:32:00,36.3,27.9,29.93,West,280,3.0,25.0,71,0.00,,,0.04,meteohub,2013-10-24 01:32:00,
2013-10-23 21:37:00,36.3,27.5,29.93,NW,325,11.0,16.0,70,0.00,,,0.04,meteohub,2013-10-24 01:37:00,
2013-10-23 21:42:00,36.5,28.0,29.93,SE,145,0.0,16.0,71,0.00,,,0.04,meteohub,2013-10-24 01:42:00,
2013-10-23 21:47:00,36.7,28.6,29.93,NNW,348,3.0,16.0,72,0.00,,,0.04,meteohub,2013-10-24 01:47:00,
2013-10-23 21:52:00,36.7,28.6,29.93,NNW,348,5.0,11.0,72,0.00,,,0.04,meteohub,2013-10-24 01:52:00,
2013-10-23 21:57:00,36.7,28.2,29.93,NNW,348,7.0,8.0,71,0.00,,,0.04,meteohub,2013-10-24 01:57:00,
2013-10-23 22:02:00,36.3,27.9,29.93,WSW,258,6.0,8.0,71,0.00,,,0.04,meteohub,2013-10-24 02:02:00,
2013-10-23 22:07:00,36.1,28.0,29.93,SW,235,10.0,20.0,72,0.00,,,0.04,meteohub,2013-10-24 02:07:00,
2013-10-23 22:12:00,36.1,28.0,29.93,NNW,348,12.0,20.0,72,0.00,,,0.04,meteohub,2013-10-24 02:12:00,
2013-10-23 22:17:00,36.0,27.9,29.93,SW,235,3.0,12.0,72,0.00,,,0.04,meteohub,2013-10-24 02:17:00,
2013-10-23 22:22:00,36.1,28.4,29.93,SSE,168,7.0,12.0,73,0.00,,,0.04,meteohub,2013-10-24 02:22:00,
2013-10-23 22:27:00,36.0,28.2,29.93,South,190,7.0,12.0,73,0.00,,,0.04,meteohub,2013-10-24 02:27:00,
2013-10-23 22:32:00,36.0,28.2,29.93,South,190,4.0,12.0,73,0.00,,,0.04,meteohub,2013-10-24 02:32:00,
2013-10-23 22:37:00,35.8,28.0,29.93,WSW,258,2.0,11.0,73,0.00,,,0.04,meteohub,2013-10-24 02:37:00,
2013-10-23 22:42:00,36.0,28.2,29.93,South,190,5.0,11.0,73,0.00,,,0.04,meteohub,2013-10-24 02:42:00,
2013-10-23 22:47:00,36.0,28.2,29.93,SSW,212,0.0,9.0,73,0.00,,,0.04,meteohub,2013-10-24 02:47:00,
2013-10-23 22:52:00,36.0,28.2,29.93,South,190,5.0,9.0,73,0.00,,,0.04,meteohub,2013-10-24 02:52:00,
2013-10-23 22:57:00,36.0,27.9,29.90,WSW,258,6.0,12.0,72,0.00,,,0.04,meteohub,2013-10-24 02:57:00,
2013-10-23 23:02:00,36.3,27.9,29.90,West,280,3.0,12.0,71,0.00,,,0.04,meteohub,2013-10-24 03:02:00,
2013-10-23 23:07:00,36.3,27.5,29.90,WSW,258,0.0,12.0,70,0.00,,,0.04,meteohub,2013-10-24 03:07:00,
2013-10-23 23:12:00,36.7,27.5,29.93,SSE,168,3.0,10.0,69,0.00,,,0.04,meteohub,2013-10-24 03:12:00,
2013-10-23 23:17:00,36.7,27.9,29.93,SE,145,0.0,10.0,70,0.00,,,0.04,meteohub,2013-10-24 03:17:00,
2013-10-23 23:22:00,36.7,28.6,29.93,South,190,5.0,8.0,72,0.00,,,0.04,meteohub,2013-10-24 03:22:00,
2013-10-23 23:27:00,36.5,28.4,29.93,SSE,168,4.0,6.0,72,0.00,,,0.04,meteohub,2013-10-24 03:27:00,
2013-10-23 23:32:00,36.7,28.6,29.93,WSW,258,2.0,6.0,72,0.00,,,0.04,meteohub,2013-10-24 03:32:00,
2013-10-23 23:37:00,36.5,28.4,29.93,NNW,348,0.0,6.0,72,0.00,,,0.04,meteohub,2013-10-24 03:37:00,
2013-10-23 23:42:00,36.5,28.4,29.90,SSE,168,0.0,6.0,72,0.00,,,0.04,meteohub,2013-10-24 03:42:00,
2013-10-23 23:47:00,36.7,28.6,29.90,West,280,0.0,6.0,72,0.00,,,0.04,meteohub,2013-10-24 03:47:00,
2013-10-23 23:52:00,36.7,28.6,29.90,West,280,0.0,4.0,72,0.00,,,0.04,meteohub,2013-10-24 03:52:00,
2013-10-23 23:57:00,36.7,28.6,29.93,ENE,78,0.0,4.0,72,0.00,,,0.04,meteohub,2013-10-24 03:57:00,